Flag for U.S.A. Weather past 2 weeks in Richmond, Virginia, U.S.A.

Now
84 °F

Partly sunny.


Feels Like: 83 °F
Forecast: 63 / 86 °F
Wind: 12 mph from South

Location: Richmond International Airport

Current Time: May 25, 2015 at 6:45:15 PM

Latest Report: May 25, 2015 at 5:54 PM


Visibility: 10 mi

Pressure: 30.24 "Hg

Humidity: 38%

Dew point: 56 °F

Location of RichmondLocation

Historic Weather in Richmond — Graph

°F

Richmond temperature yesterday

Maximum temperature yesterday: 83 °F (at 3:54 PM)
Minimum temperature yesterday: 54 °F (at 4:54 AM)
Average temperature yesterday: 69 °F

Past Weeks' High & Low Weather Summary

 TemperatureHumidityPressure
High90 °F (May 12, 3:54 PM)93% (May 11, 1:54 AM)30.48 "Hg (May 11, 1:54 AM)
Low50 °F (May 14, 5:54 AM)26% (May 22, 4:54 PM)29.86 "Hg (May 19, 5:54 PM)
Average71 °F62%30.15 "Hg
* Reported May 10 4:54 PM — May 25 4:54 PM, Richmond, Weather by CustomWeather, © 2015

Note: Actual official high and low records may vary slightly from our data, if they occured in-between our weather recording intervals... More about our weather records

Advertising

Richmond weather history for previous 24 hours

 ConditionsComfort  
Time TempWeatherWind HumidityBarometerVisibility
4:54 PM
Mon, May 25
84 °FPartly sunny.14 mph38%30.25 "Hg10 mi
3:54 PM84 °FScattered clouds.17 mph40%30.25 "Hg10 mi
2:54 PM84 °FScattered clouds.16 mph41%30.27 "Hg10 mi
1:54 PM82 °FBroken clouds.14 mph44%30.29 "Hg10 mi
12:54 PM81 °FScattered clouds.17 mph45%30.31 "Hg10 mi
11:54 AM80 °FScattered clouds.8 mph45%30.32 "Hg10 mi
10:54 AM78 °FPassing clouds.13 mph46%30.33 "Hg10 mi
9:54 AM76 °FPassing clouds.13 mph52%30.34 "Hg10 mi
8:54 AM72 °FPassing clouds.10 mph64%30.34 "Hg10 mi
7:54 AM68 °FScattered clouds.8 mph70%30.34 "Hg10 mi
6:54 AM63 °FScattered clouds.3 mph81%30.33 "Hg10 mi
5:54 AM62 °FPassing clouds.6 mph80%30.32 "Hg10 mi
4:54 AM64 °FClear.7 mph75%30.30 "Hg10 mi
3:54 AM66 °FClear.8 mph70%30.30 "Hg10 mi
2:54 AM67 °FClear.10 mph68%30.30 "Hg10 mi
1:54 AM68 °FPassing clouds.12 mph65%30.29 "Hg10 mi
12:54 AM67 °FPassing clouds.12 mph71%30.30 "Hg10 mi
11:54 PM
Sun, May 24
66 °FPassing clouds.8 mph73%30.31 "Hg10 mi
10:54 PM67 °FPassing clouds.7 mph71%30.32 "Hg10 mi
9:54 PM69 °FPassing clouds.5 mph66%30.31 "Hg10 mi
8:54 PM72 °FScattered clouds.3 mph59%30.29 "Hg10 mi
7:54 PM75 °FScattered clouds.7 mph54%30.29 "Hg10 mi
6:54 PM80 °FScattered clouds.12 mph41%30.29 "Hg10 mi
Weather by CustomWeather, © 2015

See weather overviewHow to use our weather pages